Torna al catalogo

KUIPER-00541

AttivoComunicazioniVLEO
NORAD 69610·PAYLOAD·🇺🇸 United States

Lanciato Jun 17, 2026 da Guiana Space Centre

Loading…

Prossimi Passaggi (prossime 24 ore)

TLE

AggiornatoSource: CelesTrak SupGP

Epoca: Sep 14, 2026, 16:17 UTC

1 69610C 26140U   26257.67857639 -.00695040  00000+0 -26320-1 0  2574
2 69610  51.8866 325.8863 0007040 164.7236 147.4415 15.27020269    14

Traccia KUIPER-00541 in tempo reale con AllMySat

Download on the App Store